Home > Weather > Rarotonga > Past weeks

Flag for Cook Islands Weather for the Past 2 Weeks in Rarotonga, Cook Islands

Now
82 °F

Passing clouds.


Feels Like: 91 °F
Forecast: 73 / 82 °F
Wind: 3 mph from West

Location: Rarotonga

Current Time: Feb 11, 2016 at 11:03:13 PM

Latest Report: Feb 11, 2016 at 10:00 PM


Visibility: N/A

Pressure: 29.89 "Hg

Humidity: 84%

Dew point: 77 °F

Location of RarotongaLocation

Historic Weather in Rarotonga — Graph

°F

Rarotonga Temperature Yesterday

Maximum temperature yesterday: 90 °F (at 2:00 PM)
Minimum temperature yesterday: 81 °F (at 4:00 AM)
Average temperature yesterday: 84 °F

High & Low Weather Summary for the Past Weeks

 TemperatureHumidityPressure
High90 °F (Feb 10, 2:00 PM)94% (Feb 6, 5:00 AM)30.04 "Hg (Feb 6, 5:00 AM)
Low73 °F (Jan 30, 3:00 AM)58% (Jan 29, 4:00 PM)29.77 "Hg (Feb 8, 4:00 AM)
Average81 °F81%29.91 "Hg
* Reported Jan 27 10:00 PM — Feb 11 10:00 PM, Rarotonga, Weather by CustomWeather, © 2016

Note: Actual official high and low records may vary slightly from our data, if they occured in-between our weather recording intervals... More about our weather records

Advertising

Rarotonga Weather History for the Previous 24 Hours

 ConditionsComfort  
Time TempWeatherWind HumidityBarometerVisibility
10:00 PM
Thu, Feb 11
82 °FPassing clouds.3 mph84%29.89 "HgN/A
9:00 PM82 °FPassing clouds.3 mph79%29.86 "HgN/A
8:00 PM82 °FPassing clouds.3 mph79%29.86 "HgN/A
7:00 PM84 °FScattered clouds.5 mph79%29.83 "HgN/A
6:00 PM86 °FScattered clouds.5 mph75%29.86 "HgN/A
5:00 PM86 °FScattered clouds.3 mph75%29.83 "HgN/A
4:00 PM90 °FScattered clouds.5 mph67%29.83 "HgN/A
3:00 PM90 °FPassing clouds.5 mph67%29.83 "HgN/A
2:00 PM90 °FPassing clouds.5 mph71%29.86 "HgN/A
1:00 PM88 °FPassing clouds.5 mph75%29.86 "HgN/A
11:00 AM86 °FScattered clouds.3 mph79%29.92 "HgN/A
10:00 AM84 °FScattered clouds.5 mph84%29.92 "HgN/A
9:00 AM84 °FRain. Cloudy.N/A84%29.92 "HgN/A
8:00 AM81 °FBroken clouds.2 mph94%29.92 "HgN/A
7:00 AM79 °FPartly sunny.2 mph89%29.89 "HgN/A
6:00 AM79 °FPassing clouds.3 mph94%29.89 "HgN/A
5:00 AM79 °FPassing clouds.3 mph94%29.89 "HgN/A
4:00 AM79 °FPassing clouds.2 mph94%29.89 "HgN/A
3:00 AM79 °FPassing clouds.3 mph94%29.89 "HgN/A
2:00 AM81 °FPartly cloudy.2 mph89%29.89 "HgN/A
1:00 AM81 °FPassing clouds.2 mph89%29.92 "HgN/A
12:00 AM82 °FPassing clouds.1 mph89%29.92 "HgN/A
11:00 PM
Wed, Feb 10
82 °FPassing clouds.1 mph89%29.95 "HgN/A
Weather by CustomWeather, © 2016

See weather overviewHow to use our weather pages